User: anonymous   Login
Location: Vancouver
(49.2500°N, 123.1330°W)
Time: 08:46:50
(UTC-08:00)
Language:

Cosmos 1340 Rocket - Orbit

View from above orbital plane
View from above orbital plane
View from above satellite
View from above satellite

Ground track
Ground track

The orbit data is extracted from the following two-line orbital elements,

1 13068U 82013B   18053.21323583  .00000754  00000-0  48453-4 0  9990
2 13068  81.2028 297.0003 0020823 209.7949 150.2091 15.07095460961154
Epoch (UTC): 22 February 2018 05:07:03
Eccentricity: 0.0020823
inclination: 81.2028°
perigee height: 530 km
apogee height: 559 km
right ascension of ascending node: 297.0003°
argument of perigee: 209.7949°
revolutions per day: 15.07095460
mean anomaly at epoch: 150.2091°
orbit number at epoch: 96115

The dashed part of the orbit path shows where the satellite is in the earth's shadow,  

DLR